Weather History for Salamanca, Spain

Change the Weather History Date:

Monday, July 8, 2013

  Actual Average Record
Temperature  
Mean Temperature 76 °F -  
Max Temperature 99 °F - - ()
Min Temperature 54 °F - - ()
Cooling Degree Days 12    
Growing Degree Days 26 (Base 50)    
Moisture  
Dew Point 50 °F    
Average Humidity 42    
Maximum Humidity 82    
Minimum Humidity 16    
Precipitation  
Precipitation 0.00 in 0.02 in - ()
Sea Level Pressure  
Sea Level Pressure 30.17 in    
Wind  
Wind Speed 3 mph ()    
Max Wind Speed 10 mph    
Max Gust Speed -    
Visibility 12.0 miles    
Events      
T = Trace of Precipitation, MM = Missing Value Source: Averaged Metar Reports

Daily Weather History Graph

Daily Weather History Graph

Search for Another Location

Airport:

Trip Planner

Search our weather history database for the weather conditions in past years. The results will help you decide how hot, cold, wet, or windy it might be!

Date:

Astronomy

Jul. 08, 2013 Rise Set
Actual Time 6:57 AM CEST 9:56 PM CEST
Civil Twilight 6:24 AM CEST 10:29 PM CEST
Nautical Twilight 5:42 AM CEST 11:10 PM CEST
Astronomical Twilight 4:53 AM CEST 11:59 PM CEST
Moon 7:14 AM CEST (7/8) 9:48 PM CEST (7/8)
Length of Visible Light 16h 04m
Length of Day
14h 58m
New Moon, 0% of the Moon is Illuminated
Jul 8
New Moon
Jul 16
First Quarter
Jul 22
Full
Jul 29
Last Quarter
Aug 6
New

Hourly Weather History & Observations

Time (CEST) Temp. Heat Index Dew Point Humidity Pressure Visibility Wind Dir Wind Speed Gust Speed Precip Events Conditions
12:00 AM 77.0 °F - 41.0 °F 28% 30.21 in - East 10.4 mph - N/A   Clear
12:30 AM 77.0 °F - 41.0 °F 28% 30.21 in - East 9.2 mph - N/A   Clear
1:00 AM 71.6 °F - 42.8 °F 35% 30.21 in - ESE 9.2 mph - N/A   Clear
1:30 AM 66.2 °F - 48.2 °F 52% 30.21 in - Calm Calm - N/A   Clear
2:00 AM 68 °F - 43 °F 29%  in 12 mi ESE 3.5 mph - -  
2:00 AM 69.8 °F - 42.8 °F 38% 30.21 in - Variable 2.3 mph - N/A   Clear
2:30 AM 69.8 °F - 44.6 °F 40% 30.21 in - East 6.9 mph - N/A   Clear
3:00 AM 68.0 °F - 46.4 °F 46% 30.21 in - East 5.8 mph - N/A   Clear
3:30 AM 66.2 °F - 48.2 °F 52% 30.21 in - East 3.5 mph - N/A   Clear
4:00 AM 64.4 °F - 48.2 °F 56% 30.21 in - ESE 3.5 mph - N/A   Clear
4:30 AM 64.4 °F - 48.2 °F 56% 30.18 in - Variable 1.2 mph - N/A   Clear
5:00 AM 62.6 °F - 50.0 °F 63% 30.18 in - Variable 2.3 mph - N/A   Clear
5:30 AM 60.8 °F - 51.8 °F 72% 30.18 in - Variable 1.2 mph - N/A   Clear
6:00 AM 62.6 °F - 50.0 °F 63% 30.18 in - Calm Calm - N/A   Clear
6:30 AM 57.2 °F - 51.8 °F 82% 30.18 in - Calm Calm - N/A   Clear
7:00 AM 55.4 °F - 50.0 °F 82% 30.21 in - Calm Calm - N/A   Clear
7:30 AM 57.2 °F - 50.0 °F 77% 30.21 in - Calm Calm - N/A   Clear
8:00 AM 60 °F - 54 °F 76%  in 12 mi Calm Calm - -  
8:00 AM 59.0 °F - 53.6 °F 82% 30.21 in - Calm Calm - N/A   Clear
8:30 AM 64.4 °F - 53.6 °F 68% 30.21 in - Calm Calm - N/A   Clear
9:00 AM 68.0 °F - 50.0 °F 52% 30.21 in - Calm Calm - N/A   Clear
9:30 AM 69.8 °F - 50.0 °F 49% 30.21 in - Calm Calm - N/A   Clear
10:00 AM 69.8 °F - 51.8 °F 53% 30.21 in - Variable 1.2 mph - N/A   Clear
10:30 AM 71.6 °F - 51.8 °F 50% 30.21 in - Variable 2.3 mph - N/A   Clear
11:00 AM 75.2 °F - 51.8 °F 44% 30.21 in - Variable 2.3 mph - N/A   Clear
11:30 AM 77.0 °F - 53.6 °F 44% 30.21 in - Variable 2.3 mph - N/A   Clear
12:00 PM 80.6 °F - 51.8 °F 37% 30.21 in - East 3.5 mph - N/A   Clear
12:30 PM 82.4 °F 81.4 °F 53.6 °F 37% 30.21 in - East 3.5 mph - N/A   Clear
1:00 PM 84.2 °F 82.8 °F 53.6 °F 35% 30.21 in - ESE 3.5 mph - N/A   Clear
1:30 PM 87.8 °F - 50.0 °F 27% 30.21 in - East 4.6 mph - N/A   Clear
2:00 PM 92 °F - 53 °F 17%  in 12 mi East 4.6 mph - -  
2:00 PM 89.6 °F - 50.0 °F 26% 30.18 in - ESE 4.6 mph - N/A   Clear
2:30 PM 91.4 °F - 50.0 °F 24% 30.18 in - East 3.5 mph - N/A   Clear
3:00 PM 91.4 °F - 44.6 °F 20% 30.18 in - East 4.6 mph - N/A   Clear
3:30 PM 93.2 °F - 46.4 °F 20% 30.15 in - Variable 3.5 mph - N/A   Clear
4:00 PM 95.0 °F - 46.4 °F 19% 30.15 in - East 3.5 mph - N/A   Clear
4:30 PM 95.0 °F - 42.8 °F 16% 30.15 in - Variable 2.3 mph - N/A   Clear
5:00 PM 95.0 °F - 48.2 °F 20% 30.12 in - WNW 6.9 mph - N/A   Clear
5:30 PM 95.0 °F - 46.4 °F 19% 30.12 in - WNW 5.8 mph - N/A   Clear
6:00 PM 96.8 °F - 46.4 °F 18% 30.12 in - Variable 1.2 mph - N/A   Clear
6:30 PM 96.8 °F - 50.0 °F 20% 30.12 in - WNW 3.5 mph - N/A   Clear
7:00 PM 95.0 °F - 44.6 °F 18% 30.12 in - NW 3.5 mph - N/A   Clear
7:30 PM 95.0 °F - 51.8 °F 23% 30.09 in - Variable 2.3 mph - N/A   Clear
8:00 PM 96 °F - 54 °F 16%  in 12 mi NNW 2.3 mph - -   Clear
8:00 PM 93.2 °F 91.3 °F 55.4 °F 28% 30.09 in - Variable 1.2 mph - N/A   Clear
8:30 PM 87.8 °F 85.7 °F 53.6 °F 31% 30.09 in - North 4.6 mph - N/A   Clear
9:00 PM 87.8 °F 87.6 °F 60.8 °F 40% 30.12 in - Variable 1.2 mph - N/A   Clear
9:30 PM 86.0 °F 84.5 °F 55.4 °F 35% 30.09 in - Variable 2.3 mph - N/A   Clear
10:00 PM 80.6 °F 81.1 °F 59.0 °F 48% 30.09 in - Variable 1.2 mph - N/A   Clear
10:30 PM 78.8 °F - 53.6 °F 42% 30.12 in - Variable 1.2 mph - N/A   Clear
11:00 PM 75.2 °F - 60.8 °F 61% 30.12 in - Calm Calm - N/A   Clear
11:30 PM 73.4 °F - 62.6 °F 69% 30.12 in - Calm Calm - N/A   Clear